User: anonymous
Location: Star Hoppers Observatory
(42.7905°N, 83.6127°W)
Time: 01:29:17
(UTC-04:00)
Language:

NOSS 3-1 (A) - Orbit

View from above orbital plane
View from above orbital plane
View from above satellite
View from above satellite

Ground track
Ground track

The orbit data is extracted from the following two-line orbital elements,

1 26905U 01040A   14095.09256106 0.00000000  00000-0  00000-0 0    08
2 26905  63.4260 135.9206 0269000 357.7039   2.2961 13.40685177    04
Epoch (UTC): 05 April 2014 02:13:17
Eccentricity: 0.0269000
inclination: 63.4260°
perigee height: 905 km
apogee height: 1308 km
right ascension of ascending node: 135.9206°
argument of perigee: 357.7039°
revolutions per day: 13.40685177
mean anomaly at epoch: 2.2961°
orbit number at epoch: 0

The dashed part of the orbit path shows where the satellite is in the earth's shadow,  

DLR